Terminal Aerodrome Forecast
Issued by NWS Cleveland, OH

Home | Current Version | Previous Version | Graphics & Text | Print | Product List | Glossary On
Versions: 1 2 3 4 5 6 7 8 9 10 11 12 13 14 15 16 17 18 19 20 21 22 23 24 25 26 27 28 29
000
FTUS41 KCLE 210900 AAA
TAFCLE
TAF AMD
KCLE 210920Z 2109/2212 00000KT 6SM BR SCT250
     FM211000 00000KT 5SM BR SCT250
     FM211330 VRB03KT P6SM SCT250
     FM211530 36006KT P6SM BKN040
     FM212000 02006KT P6SM SCT050
     FM212300 VRB03KT P6SM SKC=

USA.gov is the U.S. government's official web portal to all federal, state and local government web resources and services.